Baku, Azerbaijan

8:19 PM +04 on October 16, 2018 (GMT +0400)
Bina

Weather History for UBBB - March, 2018

Change the Weather History Date:

Friday, March 16, 2018

  Actual Average Record
Temperature  
Mean Temperature 44 °F -  
Max Temperature 49 °F - - ()
Min Temperature 39 °F - - ()
Degree Days  
Heating Degree Days 21    
Moisture  
Dew Point 41 °F    
Average Humidity 89    
Maximum Humidity 100    
Minimum Humidity 76    
Precipitation  
Precipitation 0.00 in - - ()
Sea Level Pressure  
Sea Level Pressure 29.86 in    
Wind  
Wind Speed 11 mph ()    
Max Wind Speed 25 mph    
Max Gust Speed -    
Visibility 5.0 miles    
Events Fog    
T = Trace of Precipitation, MM = Missing Value Source: Averaged Metar Reports

Daily Weather History Graph

Daily Weather History Graph

Search for Another Location

Airport or City:

Astronomy

Mar. 16, 2018 Rise Set
Actual Time 6:50 AM +04 6:47 PM +04
Civil Twilight 6:23 AM +04 7:14 PM +04
Nautical Twilight 5:51 AM +04 7:46 PM +04
Astronomical Twilight 5:19 AM +04 8:18 PM +04
Moon 6:25 AM +04 5:40 PM +04
Length of Visible Light 12h 51m
Length of Day
11h 57m
Waning Crescent, 2% of the Moon is Illuminated
Mar 16
Waning Crescent
Mar 17
New
Mar 24
First Quarter
Mar 31
Full
Apr 8
Last Quarter

Hourly Weather History & Observations

Time (+04) Temp. Windchill Dew Point Humidity Pressure Visibility Wind Dir Wind Speed Gust Speed Precip Events Conditions
12:00 AM 42.8 °F 37.5 °F 42.8 °F 100% 29.83 in - SSE 9.2 mph - N/A   Clear
12:30 AM 42.8 °F 38.0 °F 42.8 °F 100% 29.83 in - South 8.1 mph - N/A   Clear
1:00 AM 44 °F - 41 °F 87% 29.83 in 6 mi East 4.5 mph - -  
1:00 AM 44.6 °F 42.2 °F 42.8 °F 93% 29.83 in - SSE 4.6 mph - N/A   Clear
1:30 AM 42.8 °F 39.3 °F 42.8 °F 100% 29.83 in - South 5.8 mph - N/A   Clear
2:00 AM 42.8 °F 38.0 °F 41.0 °F 93% 29.83 in - SSE 8.1 mph - N/A   Clear
2:30 AM 42.8 °F 38.0 °F 42.8 °F 100% 29.80 in - SSE 8.1 mph - N/A   Clear
3:00 AM 41.0 °F 36.4 °F 41.0 °F 100% 29.80 in - South 6.9 mph - N/A   Clear
3:30 AM 41.0 °F 36.4 °F 41.0 °F 100% 29.80 in - SSE 6.9 mph - N/A   Clear
4:00 AM 43 °F - 41 °F 89% 29.79 in 6 mi Calm Calm - -  
4:00 AM 41.0 °F 37.1 °F 41.0 °F 100% 29.77 in - SE 5.8 mph - N/A   Clear
4:30 AM 41.0 °F 36.4 °F 39.2 °F 93% 29.77 in - SSE 6.9 mph - N/A   Clear
5:00 AM 41.0 °F 38.0 °F 41.0 °F 100% 29.80 in 4.3 mi South 4.6 mph - N/A   Unknown
5:30 AM 41.0 °F 39.0 °F 41.0 °F 100% 29.80 in 1.9 mi South 3.5 mph - N/A   Mist
6:00 AM 39.2 °F - 39.2 °F 100% 29.80 in 0.9 mi Calm Calm - N/A   Mist
6:30 AM 39.2 °F - 39.2 °F 100% 29.80 in 0.3 mi Calm Calm - N/A Fog Fog
7:00 AM 41 °F - 39 °F 92% 29.79 in 2 mi Calm Calm - -   Mist
7:00 AM 37.4 °F - 37.4 °F 100% 29.80 in 0.8 mi Calm Calm - N/A   Mist
7:30 AM 37.4 °F 33.8 °F 37.4 °F 100% 29.80 in 0.5 mi NW 4.6 mph - N/A Fog Fog
8:00 AM 41.0 °F 39.0 °F 41.0 °F 100% 29.83 in 3.1 mi NW 3.5 mph - N/A   Mostly Cloudy
8:30 AM 42.8 °F 37.5 °F 42.8 °F 100% 29.83 in 3.7 mi NNW 9.2 mph - N/A   Mostly Cloudy
9:00 AM 44.6 °F 39.7 °F 42.8 °F 93% 29.86 in - NW 9.2 mph - N/A   Clear
9:30 AM 48.2 °F - 44.6 °F 87% 29.86 in - NNW 15.0 mph - N/A   Clear
10:00 AM 47 °F - 43 °F 79% 29.86 in 6 mi WNW 20.1 mph - -   Mostly Cloudy
10:00 AM 48.2 °F - 42.8 °F 82% 29.86 in - NNW 18.4 mph - N/A   Clear
10:30 AM 48.2 °F - 42.8 °F 82% 29.86 in 6.2 mi North 20.7 mph - N/A   Mostly Cloudy
11:00 AM 48.2 °F - 42.8 °F 82% 29.86 in 6.2 mi North 19.6 mph - N/A   Mostly Cloudy
11:30 AM 48.2 °F - 42.8 °F 82% 29.86 in 6.2 mi NNW 19.6 mph - N/A   Mostly Cloudy
12:00 PM 48.2 °F - 42.8 °F 82% 29.89 in 6.2 mi NNW 17.3 mph - N/A   Mostly Cloudy
12:30 PM 48.2 °F - 42.8 °F 82% 29.89 in 6.2 mi NNW 21.9 mph - N/A   Mostly Cloudy
1:00 PM 48 °F - 43 °F 77% 29.87 in 6 mi WNW 17.9 mph - -   Overcast
1:00 PM 50.0 °F - 44.6 °F 82% 29.86 in 6.2 mi NNW 21.9 mph - N/A   Mostly Cloudy
1:30 PM 50.0 °F - 42.8 °F 76% 29.86 in 6.2 mi NNW 20.7 mph - N/A   Mostly Cloudy
2:00 PM 48.2 °F - 42.8 °F 82% 29.86 in 6.2 mi NNW 21.9 mph - N/A   Mostly Cloudy
2:30 PM 48.2 °F - 42.8 °F 82% 29.86 in 6.2 mi NNW 23.0 mph - N/A   Mostly Cloudy
3:00 PM 48.2 °F - 41.0 °F 76% 29.86 in 6.2 mi NNW 21.9 mph - N/A   Mostly Cloudy
3:30 PM 48.2 °F - 42.8 °F 82% 29.86 in - NNW 24.2 mph - N/A   Clear
4:00 PM 46 °F - 41 °F 77% 29.87 in 6 mi WNW 22.4 mph - -   Overcast
4:00 PM 46.4 °F 38.3 °F 41.0 °F 81% 29.86 in - NNW 23.0 mph - N/A   Clear
4:30 PM 48.2 °F - 41.0 °F 76% 29.86 in - NNW 19.6 mph - N/A   Clear
5:00 PM 46.4 °F 38.1 °F 41.0 °F 81% 29.86 in - NNW 24.2 mph - N/A   Clear
5:30 PM 46.4 °F 37.9 °F 41.0 °F 81% 29.86 in - NNW 25.3 mph - N/A   Clear
6:00 PM 46.4 °F 38.1 °F 41.0 °F 81% 29.89 in - NNW 24.2 mph - N/A   Clear
6:30 PM 44.6 °F 35.7 °F 41.0 °F 87% 29.89 in 6.2 mi NNW 24.2 mph - N/A   Mostly Cloudy
7:00 PM 44 °F - 40 °F 81% 29.90 in 6 mi NNW 13.4 mph - -   Overcast
7:00 PM 44.6 °F 35.9 °F 41.0 °F 87% 29.89 in 6.2 mi NNW 23.0 mph - N/A   Mostly Cloudy
7:30 PM 44.6 °F 36.1 °F 41.0 °F 87% 29.89 in - North 21.9 mph - N/A   Clear
8:00 PM 44.6 °F 36.4 °F 41.0 °F 87% 29.92 in 6.2 mi NNW 20.7 mph - N/A   Mostly Cloudy
8:30 PM 44.6 °F 36.1 °F 41.0 °F 87% 29.92 in 6.2 mi North 21.9 mph - N/A   Mostly Cloudy
9:00 PM 42.8 °F 33.5 °F 41.0 °F 93% 29.92 in 6.2 mi NNW 23.0 mph - N/A   Mostly Cloudy
9:30 PM 42.8 °F 34.0 °F 41.0 °F 93% 29.92 in 6.2 mi NNW 20.7 mph - N/A   Mostly Cloudy
10:00 PM 43 °F - 40 °F 87% 29.94 in 6 mi NW 20.1 mph - -   Overcast
10:00 PM 42.8 °F 33.8 °F 41.0 °F 93% 29.92 in - NNW 21.9 mph - N/A   Clear
10:30 PM 44.6 °F 35.9 °F 41.0 °F 87% 29.92 in - NNW 23.0 mph - N/A   Clear
11:00 PM 44.6 °F 36.1 °F 41.0 °F 87% 29.95 in - NNW 21.9 mph - N/A   Clear
11:30 PM 44.6 °F 36.1 °F 41.0 °F 87% 29.95 in - NNW 21.9 mph - N/A   Clear